PROPCUBE 1 (FLORA)

Last updated on Thu Nov 21 2024 00:03:39 GMT+0000 (Coordinated Universal Time)

1 40976U 15058N 24325.23532539 .00006842 00000+0 62208-3 0 9993 2 40976 64.7757 268.0303 0186632 259.9552 98.0454 14.83608284 30927
UTC large
Height (km)
Speed (km/s)
/
Latitude / Longitude
Inclination (degrees)
Orbital Period (minutes)
Azimuth
Elevation
Range (km)
Doppler Factor

Next 0 passes for location: London (51.5072 / 0.1276)

Sorry there are no passes over London.